Year,Month,Day,Hour,Minute,Value (Times are PST for temperature in C)
2017,02,13,00,00,-1.30
2017,02,13,00,01,-1.30
2017,02,13,00,02,-1.30
2017,02,13,00,03,-1.30
2017,02,13,00,04,-1.30
2017,02,13,00,05,-1.30
2017,02,13,00,06,-1.20
2017,02,13,00,07,-1.20
2017,02,13,00,08,-1.20
2017,02,13,00,09,-1.20
2017,02,13,00,10,-1.20
2017,02,13,00,11,-1.20
2017,02,13,00,12,-1.30
2017,02,13,00,13,-1.30
2017,02,13,00,14,-1.30
2017,02,13,00,15,-1.30
2017,02,13,00,16,-1.30
2017,02,13,00,17,-1.30
2017,02,13,00,18,-1.40
2017,02,13,00,19,-1.40
2017,02,13,00,20,-1.40
2017,02,13,00,21,-1.40
2017,02,13,00,22,-1.40
2017,02,13,00,23,-1.40
2017,02,13,00,24,-1.40
2017,02,13,00,25,-1.40
2017,02,13,00,26,-1.40
2017,02,13,00,27,-1.40
2017,02,13,00,28,-1.40
2017,02,13,00,29,-1.40
2017,02,13,00,30,-1.40
2017,02,13,00,31,-1.40
2017,02,13,00,32,-1.40
2017,02,13,00,33,-1.40
2017,02,13,00,34,-1.40
2017,02,13,00,35,-1.40
2017,02,13,00,36,-1.40
2017,02,13,00,37,-1.40
2017,02,13,00,38,-1.40
2017,02,13,00,39,-1.40
2017,02,13,00,40,-1.40
2017,02,13,00,41,-1.40
2017,02,13,00,42,-1.40
2017,02,13,00,43,-1.40
2017,02,13,00,44,-1.40
2017,02,13,00,45,-1.40
2017,02,13,00,46,-1.40
2017,02,13,00,47,-1.40
2017,02,13,00,48,-1.40
2017,02,13,00,49,-1.50
2017,02,13,00,50,-1.50
2017,02,13,00,51,-1.50
2017,02,13,00,52,-1.60
2017,02,13,00,53,-1.60
2017,02,13,00,54,-1.60
2017,02,13,00,55,-1.60
2017,02,13,00,56,-1.60
2017,02,13,00,57,-1.60
2017,02,13,00,58,-1.60
2017,02,13,00,59,-1.60
2017,02,13,01,00,-1.60
2017,02,13,01,01,-1.60
2017,02,13,01,02,-1.60
2017,02,13,01,03,-1.50
2017,02,13,01,04,-1.50
2017,02,13,01,05,-1.50
2017,02,13,01,06,-1.50
2017,02,13,01,07,-1.50
2017,02,13,01,08,-1.50
2017,02,13,01,09,-1.50
2017,02,13,01,10,-1.50
2017,02,13,01,11,-1.50
2017,02,13,01,12,-1.60
2017,02,13,01,13,-1.50
2017,02,13,01,14,-1.50
2017,02,13,01,15,-1.60
2017,02,13,01,16,-1.60
2017,02,13,01,17,-1.60
2017,02,13,01,18,-1.60
2017,02,13,01,19,-1.60
2017,02,13,01,20,-1.60
2017,02,13,01,21,-1.60
2017,02,13,01,22,-1.60
2017,02,13,01,23,-1.50
2017,02,13,01,24,-1.50
2017,02,13,01,25,-1.50
2017,02,13,01,26,-1.40
2017,02,13,01,27,-1.40
2017,02,13,01,28,-1.40
2017,02,13,01,29,-1.40
2017,02,13,01,30,-1.40
2017,02,13,01,31,-1.40
2017,02,13,01,32,-1.40
2017,02,13,01,33,-1.40
2017,02,13,01,34,-1.40
2017,02,13,01,35,-1.40
2017,02,13,01,36,-1.50
2017,02,13,01,37,-1.50
2017,02,13,01,38,-1.50
2017,02,13,01,39,-1.50
2017,02,13,01,40,-1.60
2017,02,13,01,41,-1.60
2017,02,13,01,42,-1.60
2017,02,13,01,43,-1.60
2017,02,13,01,44,-1.60
2017,02,13,01,45,-1.60
2017,02,13,01,46,-1.60
2017,02,13,01,47,-1.60
2017,02,13,01,48,-1.60
2017,02,13,01,49,-1.60
2017,02,13,01,50,-1.60
2017,02,13,01,51,-1.60
2017,02,13,01,52,-1.60
2017,02,13,01,53,-1.60
2017,02,13,01,54,-1.60
2017,02,13,01,55,-1.60
2017,02,13,01,56,-1.60
2017,02,13,01,57,-1.60
2017,02,13,01,58,-1.60
2017,02,13,01,59,-1.60
2017,02,13,02,00,-1.60
2017,02,13,02,01,-1.60
2017,02,13,02,02,-1.70
2017,02,13,02,03,-1.70
2017,02,13,02,04,-1.70
2017,02,13,02,05,-1.70
2017,02,13,02,06,-1.60
2017,02,13,02,07,-1.60
2017,02,13,02,08,-1.60
2017,02,13,02,09,-1.60
2017,02,13,02,10,-1.60
2017,02,13,02,11,-1.60
2017,02,13,02,12,-1.60
2017,02,13,02,13,-1.60
2017,02,13,02,14,-1.60
2017,02,13,02,15,-1.60
2017,02,13,02,16,-1.60
2017,02,13,02,17,-1.60
2017,02,13,02,18,-1.60
2017,02,13,02,19,-1.60
2017,02,13,02,20,-1.60
2017,02,13,02,21,-1.60
2017,02,13,02,22,-1.60
2017,02,13,02,23,-1.60
2017,02,13,02,24,-1.60
2017,02,13,02,25,-1.60
2017,02,13,02,26,-1.70
2017,02,13,02,27,-1.70
2017,02,13,02,28,-1.70
2017,02,13,02,29,-1.70
2017,02,13,02,30,-1.70
2017,02,13,02,31,-1.70
2017,02,13,02,32,-1.70
2017,02,13,02,33,-1.60
2017,02,13,02,34,-1.60
2017,02,13,02,35,-1.60
2017,02,13,02,36,-1.60
2017,02,13,02,37,-1.60
2017,02,13,02,38,-1.60
2017,02,13,02,39,-1.60
2017,02,13,02,40,-1.60
2017,02,13,02,41,-1.60
2017,02,13,02,42,-1.60
2017,02,13,02,43,-1.60
2017,02,13,02,44,-1.60
2017,02,13,02,45,-1.60
2017,02,13,02,46,-1.60
2017,02,13,02,47,-1.70
2017,02,13,02,48,-1.70
2017,02,13,02,49,-1.70
2017,02,13,02,50,-1.70
2017,02,13,02,51,-1.70
2017,02,13,02,52,-1.70
2017,02,13,02,53,-1.80
2017,02,13,02,54,-1.80
2017,02,13,02,55,-1.80
2017,02,13,02,56,-1.80
2017,02,13,02,57,-1.80
2017,02,13,02,58,-1.80
2017,02,13,02,59,-1.80
2017,02,13,03,00,-1.80
2017,02,13,03,01,-1.80
2017,02,13,03,02,-1.80
2017,02,13,03,03,-1.80
2017,02,13,03,04,-1.80
2017,02,13,03,05,-1.80
2017,02,13,03,06,-1.80
2017,02,13,03,07,-1.80
2017,02,13,03,08,-1.80
2017,02,13,03,09,-1.80
2017,02,13,03,10,-1.80
2017,02,13,03,11,-1.80
2017,02,13,03,12,-1.80
2017,02,13,03,13,-1.80
2017,02,13,03,14,-1.70
2017,02,13,03,15,-1.70
2017,02,13,03,16,-1.70
2017,02,13,03,17,-1.70
2017,02,13,03,18,-1.70
2017,02,13,03,19,-1.70
2017,02,13,03,20,-1.70
2017,02,13,03,21,-1.70
2017,02,13,03,22,-1.70
2017,02,13,03,23,-1.70
2017,02,13,03,24,-1.70
2017,02,13,03,25,-1.70
2017,02,13,03,26,-1.70
2017,02,13,03,27,-1.70
2017,02,13,03,28,-1.70
2017,02,13,03,29,-1.70
2017,02,13,03,30,-1.70
2017,02,13,03,31,-1.70
2017,02,13,03,32,-1.70
2017,02,13,03,33,-1.70
2017,02,13,03,34,-1.70
2017,02,13,03,35,-1.70
2017,02,13,03,36,-1.70
2017,02,13,03,37,-1.70
2017,02,13,03,38,-1.70
2017,02,13,03,39,-1.70
2017,02,13,03,40,-1.70
2017,02,13,03,41,-1.70
2017,02,13,03,42,-1.70
2017,02,13,03,43,-1.70
2017,02,13,03,44,-1.70
2017,02,13,03,45,-1.70
2017,02,13,03,46,-1.70
2017,02,13,03,47,-1.80
2017,02,13,03,48,-1.80
2017,02,13,03,49,-1.80
2017,02,13,03,50,-1.80
2017,02,13,03,51,-1.80
2017,02,13,03,52,-1.80
2017,02,13,03,53,-1.80
2017,02,13,03,54,-1.80
2017,02,13,03,55,-1.80
2017,02,13,03,56,-1.80
2017,02,13,03,57,-1.80
2017,02,13,03,58,-1.70
2017,02,13,03,59,-1.70
2017,02,13,04,00,-1.70
2017,02,13,04,01,-1.70
2017,02,13,04,02,-1.70
2017,02,13,04,03,-1.70
2017,02,13,04,04,-1.70
2017,02,13,04,05,-1.70
2017,02,13,04,06,-1.70
2017,02,13,04,07,-1.70
2017,02,13,04,08,-1.70
2017,02,13,04,09,-1.70
2017,02,13,04,10,-1.70
2017,02,13,04,11,-1.70
2017,02,13,04,12,-1.70
2017,02,13,04,13,-1.70
2017,02,13,04,14,-1.80
2017,02,13,04,15,-1.80
2017,02,13,04,16,-1.80
2017,02,13,04,17,-1.80
2017,02,13,04,18,-1.70
2017,02,13,04,19,-1.70
2017,02,13,04,20,-1.70
2017,02,13,04,21,-1.80
2017,02,13,04,22,-1.80
2017,02,13,04,23,-1.80
2017,02,13,04,24,-1.80
2017,02,13,04,25,-1.70
2017,02,13,04,26,-1.70
2017,02,13,04,27,-1.70
2017,02,13,04,28,-1.70
2017,02,13,04,29,-1.70
2017,02,13,04,30,-1.70
2017,02,13,04,31,-1.70
2017,02,13,04,32,-1.70
2017,02,13,04,33,-1.70
2017,02,13,04,34,-1.70
2017,02,13,04,35,-1.70
2017,02,13,04,36,-1.70
2017,02,13,04,37,-1.70
2017,02,13,04,38,-1.70
2017,02,13,04,39,-1.70
2017,02,13,04,40,-1.70
2017,02,13,04,41,-1.80
2017,02,13,04,42,-1.80
2017,02,13,04,43,-1.80
2017,02,13,04,44,-1.80
2017,02,13,04,45,-1.80
2017,02,13,04,46,-1.80
2017,02,13,04,47,-1.90
2017,02,13,04,48,-1.90
2017,02,13,04,49,-1.90
2017,02,13,04,50,-1.90
2017,02,13,04,51,-1.90
2017,02,13,04,52,-1.90
2017,02,13,04,53,-1.90
2017,02,13,04,54,-1.90
2017,02,13,04,55,-1.90
2017,02,13,04,56,-1.90
2017,02,13,04,57,-1.90
2017,02,13,04,58,-1.90
2017,02,13,04,59,-1.90
2017,02,13,05,00,-1.90
2017,02,13,05,01,-1.90
2017,02,13,05,02,-1.90
2017,02,13,05,03,-1.90
2017,02,13,05,04,-1.90
2017,02,13,05,05,-1.90
2017,02,13,05,06,-2.00
2017,02,13,05,07,-2.00
2017,02,13,05,08,-2.00
2017,02,13,05,09,-2.00
2017,02,13,05,10,-2.00
2017,02,13,05,11,-2.00
2017,02,13,05,12,-2.00
2017,02,13,05,13,-2.00
2017,02,13,05,14,-2.10
2017,02,13,05,15,-2.10
2017,02,13,05,16,-2.10
2017,02,13,05,17,-2.10
2017,02,13,05,18,-2.10
2017,02,13,05,19,-2.10
2017,02,13,05,20,-2.10
2017,02,13,05,21,-2.10
2017,02,13,05,22,-2.20
2017,02,13,05,23,-2.20
2017,02,13,05,24,-2.20
2017,02,13,05,25,-2.20
2017,02,13,05,26,-2.20
2017,02,13,05,27,-2.20
2017,02,13,05,28,-2.20
2017,02,13,05,29,-2.20
2017,02,13,05,30,-2.20
2017,02,13,05,31,-2.20
2017,02,13,05,32,-2.20
2017,02,13,05,33,-2.20
2017,02,13,05,34,-2.20
2017,02,13,05,35,-2.20
2017,02,13,05,36,-2.20
2017,02,13,05,37,-2.20
2017,02,13,05,38,-2.20
2017,02,13,05,39,-2.20
2017,02,13,05,40,-2.20
2017,02,13,05,41,-2.20
2017,02,13,05,42,-2.20
2017,02,13,05,43,-2.20
2017,02,13,05,44,-2.20
2017,02,13,05,45,-2.20
2017,02,13,05,46,-2.20
2017,02,13,05,47,-2.20
2017,02,13,05,48,-2.20
2017,02,13,05,49,-2.20
2017,02,13,05,50,-2.20
2017,02,13,05,51,-2.10
2017,02,13,05,52,-2.10
2017,02,13,05,53,-2.10
2017,02,13,05,54,-2.10
2017,02,13,05,55,-2.10
2017,02,13,05,56,-2.10
2017,02,13,05,57,-2.20
2017,02,13,05,58,-2.10
2017,02,13,05,59,-2.10
2017,02,13,06,00,-2.10
2017,02,13,06,01,-2.10
2017,02,13,06,02,-2.10
2017,02,13,06,03,-2.10
2017,02,13,06,04,-2.10
2017,02,13,06,05,-2.10
2017,02,13,06,06,-2.10
2017,02,13,06,07,-2.10
2017,02,13,06,08,-2.10
2017,02,13,06,09,-2.10
2017,02,13,06,10,-2.10
2017,02,13,06,11,-2.10
2017,02,13,06,12,-2.20
2017,02,13,06,13,-2.10
2017,02,13,06,14,-2.10
2017,02,13,06,15,-2.10
2017,02,13,06,16,-2.10
2017,02,13,06,17,-2.10
2017,02,13,06,18,-2.10
2017,02,13,06,19,-2.10
2017,02,13,06,20,-2.10
2017,02,13,06,21,-2.10
2017,02,13,06,22,-2.10
2017,02,13,06,23,-2.10
2017,02,13,06,24,-2.10
2017,02,13,06,25,-2.10
2017,02,13,06,26,-2.10
2017,02,13,06,27,-2.10
2017,02,13,06,28,-2.10
2017,02,13,06,29,-2.10
2017,02,13,06,30,-2.10
2017,02,13,06,31,-2.10
2017,02,13,06,32,-2.10
2017,02,13,06,33,-2.10
2017,02,13,06,34,-2.10
2017,02,13,06,35,-2.10
2017,02,13,06,36,-2.10
2017,02,13,06,37,-2.10
2017,02,13,06,38,-2.10
2017,02,13,06,39,-2.20
2017,02,13,06,40,-2.20
2017,02,13,06,41,-2.20
2017,02,13,06,42,-2.20
2017,02,13,06,43,-2.20
2017,02,13,06,44,-2.20
2017,02,13,06,45,-2.20
2017,02,13,06,46,-2.20
2017,02,13,06,47,-2.20
2017,02,13,06,48,-2.20
2017,02,13,06,49,-2.20
2017,02,13,06,50,-2.30
2017,02,13,06,51,-2.30
2017,02,13,06,52,-2.30
2017,02,13,06,53,-2.30
2017,02,13,06,54,-2.30
2017,02,13,06,55,-2.20
2017,02,13,06,56,-2.20
2017,02,13,06,57,-2.20
2017,02,13,06,58,-2.20
2017,02,13,06,59,-2.20
2017,02,13,07,00,-2.20
2017,02,13,07,01,-2.10
2017,02,13,07,02,-2.10
2017,02,13,07,03,-2.10
2017,02,13,07,04,-2.10
2017,02,13,07,05,-2.10
2017,02,13,07,06,-2.10
2017,02,13,07,07,-2.10
2017,02,13,07,08,-2.10
2017,02,13,07,09,-2.10
2017,02,13,07,10,-2.10
2017,02,13,07,11,-2.10
2017,02,13,07,12,-2.10
2017,02,13,07,13,-2.20
2017,02,13,07,14,-2.20
2017,02,13,07,15,-2.20
2017,02,13,07,16,-2.20
2017,02,13,07,17,-2.20
2017,02,13,07,18,-2.20
2017,02,13,07,19,-2.20
2017,02,13,07,20,-2.20
2017,02,13,07,21,-2.10
2017,02,13,07,22,-2.10
2017,02,13,07,23,-2.10
2017,02,13,07,24,-2.10
2017,02,13,07,25,-2.10
2017,02,13,07,26,-2.10
2017,02,13,07,27,-2.10
2017,02,13,07,28,-2.00
2017,02,13,07,29,-2.00
2017,02,13,07,30,-2.00
2017,02,13,07,31,-2.00
2017,02,13,07,32,-2.00
2017,02,13,07,33,-2.00
2017,02,13,07,34,-2.00
2017,02,13,07,35,-2.00
2017,02,13,07,36,-2.00
2017,02,13,07,37,-2.10
2017,02,13,07,38,-2.10
2017,02,13,07,39,-2.10
2017,02,13,07,40,-2.10
2017,02,13,07,41,-2.10
2017,02,13,07,42,-2.10
2017,02,13,07,43,-2.10
2017,02,13,07,44,-2.10
2017,02,13,07,45,-2.10
2017,02,13,07,46,-2.10
2017,02,13,07,47,-2.10
2017,02,13,07,48,-2.20
2017,02,13,07,49,-2.20
2017,02,13,07,50,-2.20
2017,02,13,07,51,-2.20
2017,02,13,07,52,-2.20
2017,02,13,07,53,-2.20
2017,02,13,07,54,-2.20
2017,02,13,07,55,-2.20
2017,02,13,07,56,-2.20
2017,02,13,07,57,-2.20
2017,02,13,07,58,-2.20
2017,02,13,07,59,-2.20
2017,02,13,08,00,-2.20
2017,02,13,08,01,-2.20
2017,02,13,08,02,-2.20
2017,02,13,08,03,-2.20
2017,02,13,08,04,-2.20
2017,02,13,08,05,-2.20
2017,02,13,08,06,-2.20
2017,02,13,08,07,-2.20
2017,02,13,08,08,-2.20
2017,02,13,08,09,-2.20
2017,02,13,08,10,-2.20
2017,02,13,08,11,-2.20
2017,02,13,08,12,-2.20
2017,02,13,08,13,-2.20
2017,02,13,08,14,-2.20
2017,02,13,08,15,-2.20
2017,02,13,08,16,-2.20
2017,02,13,08,17,-2.20
2017,02,13,08,18,-2.20
2017,02,13,08,19,-2.20
2017,02,13,08,20,-2.10
2017,02,13,08,21,-2.10
2017,02,13,08,22,-2.10
2017,02,13,08,23,-2.10
2017,02,13,08,24,-2.10
2017,02,13,08,25,-2.00
2017,02,13,08,26,-2.00
2017,02,13,08,27,-2.00
2017,02,13,08,28,-1.90
2017,02,13,08,29,-1.90
2017,02,13,08,30,-1.80
2017,02,13,08,31,-1.80
2017,02,13,08,32,-1.80
2017,02,13,08,33,-1.70
2017,02,13,08,34,-1.70
2017,02,13,08,35,-1.70
2017,02,13,08,36,-1.70
2017,02,13,08,37,-1.70
2017,02,13,08,38,-1.60
2017,02,13,08,39,-1.60
2017,02,13,08,40,-1.60
2017,02,13,08,41,-1.60
2017,02,13,08,42,-1.60
2017,02,13,08,43,-1.60
2017,02,13,08,44,-1.60
2017,02,13,08,45,-1.50
2017,02,13,08,46,-1.50
2017,02,13,08,47,-1.50
2017,02,13,08,48,-1.50
2017,02,13,08,49,-1.50
2017,02,13,08,50,-1.50
2017,02,13,08,51,-1.40
2017,02,13,08,52,-1.40
2017,02,13,08,53,-1.40
2017,02,13,08,54,-1.40
2017,02,13,08,55,-1.40
2017,02,13,08,56,-1.40
2017,02,13,08,57,-1.40
2017,02,13,08,58,-1.30
2017,02,13,08,59,-1.30
2017,02,13,09,00,-1.30
2017,02,13,09,01,-1.30
2017,02,13,09,02,-1.20
2017,02,13,09,03,-1.20
2017,02,13,09,04,-1.20
2017,02,13,09,05,-1.10
2017,02,13,09,06,-1.10
2017,02,13,09,07,-1.10
2017,02,13,09,08,-1.10
2017,02,13,09,09,-1.00
2017,02,13,09,10,-0.90
2017,02,13,09,11,-0.90
2017,02,13,09,12,-0.90
2017,02,13,09,13,-0.80
2017,02,13,09,14,-0.80
2017,02,13,09,15,-0.80
2017,02,13,09,16,-0.70
2017,02,13,09,17,-0.70
2017,02,13,09,18,-0.60
2017,02,13,09,19,-0.60
2017,02,13,09,20,-0.50
2017,02,13,09,21,-0.50
2017,02,13,09,22,-0.40
2017,02,13,09,23,-0.40
2017,02,13,09,24,-0.40
2017,02,13,09,25,-0.30
2017,02,13,09,26,-0.30
2017,02,13,09,27,-0.30
2017,02,13,09,28,-0.30
2017,02,13,09,29,-0.30
2017,02,13,09,30,-0.30
2017,02,13,09,31,-0.30
2017,02,13,09,32,-0.20
2017,02,13,09,33,-0.20
2017,02,13,09,34,-0.20
2017,02,13,09,35,-0.20
2017,02,13,09,36,-0.20
2017,02,13,09,37,-0.10
2017,02,13,09,38,-0.10
2017,02,13,09,39,-0.10
2017,02,13,09,40,0.00
2017,02,13,09,41,0.00
2017,02,13,09,42,0.10
2017,02,13,09,43,0.10
2017,02,13,09,44,0.20
2017,02,13,09,45,0.20
2017,02,13,09,46,0.20
2017,02,13,09,47,0.30
2017,02,13,09,48,0.30
2017,02,13,09,49,0.40
2017,02,13,09,50,0.40
2017,02,13,09,51,0.40
2017,02,13,09,52,0.50
2017,02,13,09,53,0.50
2017,02,13,09,54,0.60
2017,02,13,09,55,0.70
2017,02,13,09,56,0.70
2017,02,13,09,57,0.80
2017,02,13,09,58,0.80
2017,02,13,09,59,0.80
2017,02,13,10,00,0.90
2017,02,13,10,01,0.90
2017,02,13,10,02,0.90
2017,02,13,10,03,1.00
2017,02,13,10,04,1.00
2017,02,13,10,05,1.10
2017,02,13,10,06,1.10
2017,02,13,10,07,1.20
2017,02,13,10,08,1.20
2017,02,13,10,09,1.30
2017,02,13,10,10,1.30
2017,02,13,10,11,1.30
2017,02,13,10,12,1.30
2017,02,13,10,13,1.30
2017,02,13,10,14,1.30
2017,02,13,10,15,1.40
2017,02,13,10,16,1.50
2017,02,13,10,17,1.50
2017,02,13,10,18,1.60
2017,02,13,10,19,1.60
2017,02,13,10,20,1.60
2017,02,13,10,21,1.70
2017,02,13,10,22,1.70
2017,02,13,10,23,1.70
2017,02,13,10,24,1.80
2017,02,13,10,25,1.80
2017,02,13,10,26,1.90
2017,02,13,10,27,1.90
2017,02,13,10,28,2.00
2017,02,13,10,29,2.10
2017,02,13,10,30,2.10
2017,02,13,10,31,2.20
2017,02,13,10,32,2.30
2017,02,13,10,33,2.40
2017,02,13,10,34,2.50
2017,02,13,10,35,2.60
2017,02,13,10,36,2.60
2017,02,13,10,37,2.70
2017,02,13,10,38,2.80
2017,02,13,10,39,2.90
2017,02,13,10,40,3.00
2017,02,13,10,41,3.10
2017,02,13,10,42,3.20
2017,02,13,10,43,3.30
2017,02,13,10,44,3.30
2017,02,13,10,45,3.40
2017,02,13,10,46,3.50
2017,02,13,10,47,3.60
2017,02,13,10,48,3.70
2017,02,13,10,49,3.70
2017,02,13,10,50,3.80
2017,02,13,10,51,3.90
2017,02,13,10,52,4.00
2017,02,13,10,53,4.10
2017,02,13,10,54,4.20
2017,02,13,10,55,4.40
2017,02,13,10,56,4.50
2017,02,13,10,57,4.60
2017,02,13,10,58,4.70
2017,02,13,10,59,4.80
2017,02,13,11,00,4.80
2017,02,13,11,01,4.80
2017,02,13,11,02,4.80
2017,02,13,11,03,4.70
2017,02,13,11,04,4.70
2017,02,13,11,05,4.60
2017,02,13,11,06,4.60
2017,02,13,11,07,4.60
2017,02,13,11,08,4.50
2017,02,13,11,09,4.60
2017,02,13,11,10,4.60
2017,02,13,11,11,4.70
2017,02,13,11,12,4.80
2017,02,13,11,13,4.90
2017,02,13,11,14,5.10
2017,02,13,11,15,5.20
2017,02,13,11,16,5.30
2017,02,13,11,17,5.40
2017,02,13,11,18,5.50
2017,02,13,11,19,5.60
2017,02,13,11,20,5.70
2017,02,13,11,21,5.70
2017,02,13,11,22,5.80
2017,02,13,11,23,5.80
2017,02,13,11,24,5.90
2017,02,13,11,25,5.90
2017,02,13,11,26,5.90
2017,02,13,11,27,5.90
2017,02,13,11,28,5.90
2017,02,13,11,29,5.90
2017,02,13,11,30,5.90
2017,02,13,11,31,5.90
2017,02,13,11,32,5.90
2017,02,13,11,33,6.00
2017,02,13,11,34,6.00
2017,02,13,11,35,6.00
2017,02,13,11,36,6.00
2017,02,13,11,37,6.10
2017,02,13,11,38,6.20
2017,02,13,11,39,6.30
2017,02,13,11,40,6.30
2017,02,13,11,41,6.40
2017,02,13,11,42,6.50
2017,02,13,11,43,6.50
2017,02,13,11,44,6.60
2017,02,13,11,45,6.70
2017,02,13,11,46,6.70
2017,02,13,11,47,6.80
2017,02,13,11,48,6.90
2017,02,13,11,49,7.00
2017,02,13,11,50,7.10
2017,02,13,11,51,7.10
2017,02,13,11,52,7.20
2017,02,13,11,53,7.20
2017,02,13,11,54,7.20
2017,02,13,11,55,7.30
2017,02,13,11,56,7.30
2017,02,13,11,57,7.30
2017,02,13,11,58,7.40
2017,02,13,11,59,7.40
2017,02,13,12,00,7.40
2017,02,13,12,01,7.40
2017,02,13,12,02,7.40
2017,02,13,12,03,7.40
2017,02,13,12,04,7.40
2017,02,13,12,05,7.40
2017,02,13,12,06,7.50
2017,02,13,12,07,7.50
2017,02,13,12,08,7.60
2017,02,13,12,09,7.60
2017,02,13,12,10,7.60
2017,02,13,12,11,7.60
2017,02,13,12,12,7.70
2017,02,13,12,13,7.70
2017,02,13,12,14,7.80
2017,02,13,12,15,7.80
2017,02,13,12,16,7.90
2017,02,13,12,17,8.00
2017,02,13,12,18,8.00
2017,02,13,12,19,8.10
2017,02,13,12,20,8.20
2017,02,13,12,21,8.20
2017,02,13,12,22,8.30
2017,02,13,12,23,8.30
2017,02,13,12,24,8.30
2017,02,13,12,25,8.30
2017,02,13,12,26,8.30
2017,02,13,12,27,8.30
2017,02,13,12,28,8.20
2017,02,13,12,29,8.20
2017,02,13,12,30,8.20
2017,02,13,12,31,8.20
2017,02,13,12,32,8.30
2017,02,13,12,33,8.30
2017,02,13,12,34,8.30
2017,02,13,12,35,8.30
2017,02,13,12,36,8.30
2017,02,13,12,37,8.30
2017,02,13,12,38,8.30
2017,02,13,12,39,8.30
2017,02,13,12,40,8.40
2017,02,13,12,41,8.40
2017,02,13,12,42,8.40
2017,02,13,12,43,8.50
2017,02,13,12,44,8.50
2017,02,13,12,45,8.50
2017,02,13,12,46,8.60
2017,02,13,12,47,8.60
2017,02,13,12,48,8.70
2017,02,13,12,49,8.70
2017,02,13,12,50,8.70
2017,02,13,12,51,8.70
2017,02,13,12,52,8.70
2017,02,13,12,53,8.70
2017,02,13,12,54,8.70
2017,02,13,12,55,8.70
2017,02,13,12,56,8.70
2017,02,13,12,57,8.70
2017,02,13,12,58,8.70
2017,02,13,12,59,8.70
2017,02,13,13,00,8.70
2017,02,13,13,01,8.80
2017,02,13,13,02,8.80
2017,02,13,13,03,8.90
2017,02,13,13,04,9.00
2017,02,13,13,05,9.00
2017,02,13,13,06,9.10
2017,02,13,13,07,9.10
2017,02,13,13,08,9.20
2017,02,13,13,09,9.20
2017,02,13,13,10,9.20
2017,02,13,13,11,9.20
2017,02,13,13,12,9.20
2017,02,13,13,13,9.10
2017,02,13,13,14,9.10
2017,02,13,13,15,9.10
2017,02,13,13,16,9.10
2017,02,13,13,17,9.10
2017,02,13,13,18,9.10
2017,02,13,13,19,9.10
2017,02,13,13,20,9.10
2017,02,13,13,21,9.10
2017,02,13,13,22,9.10
2017,02,13,13,23,9.10
2017,02,13,13,24,9.10
2017,02,13,13,25,9.10
2017,02,13,13,26,9.00
2017,02,13,13,27,9.00
2017,02,13,13,28,9.00
2017,02,13,13,29,9.10
2017,02,13,13,30,9.20
2017,02,13,13,31,9.20
2017,02,13,13,32,9.30
2017,02,13,13,33,9.30
2017,02,13,13,34,9.30
2017,02,13,13,35,9.30
2017,02,13,13,36,9.30
2017,02,13,13,37,9.30
2017,02,13,13,38,9.30
2017,02,13,13,39,9.30
2017,02,13,13,40,9.30
2017,02,13,13,41,9.30
2017,02,13,13,42,9.30
2017,02,13,13,43,9.30
2017,02,13,13,44,9.30
2017,02,13,13,45,9.20
2017,02,13,13,46,9.20
2017,02,13,13,47,9.30
2017,02,13,13,48,9.30
2017,02,13,13,49,9.40
2017,02,13,13,50,9.40
2017,02,13,13,51,9.40
2017,02,13,13,52,9.50
2017,02,13,13,53,9.50
2017,02,13,13,54,9.50
2017,02,13,13,55,9.40
2017,02,13,13,56,9.40
2017,02,13,13,57,9.30
2017,02,13,13,58,9.30
2017,02,13,13,59,9.30
2017,02,13,14,00,9.30
2017,02,13,14,01,9.30
2017,02,13,14,02,9.30
2017,02,13,14,03,9.30
2017,02,13,14,04,9.40
2017,02,13,14,05,9.40
2017,02,13,14,06,9.40
2017,02,13,14,07,9.40
2017,02,13,14,08,9.40
2017,02,13,14,09,9.40
2017,02,13,14,10,9.50
2017,02,13,14,11,9.60
2017,02,13,14,12,9.60
2017,02,13,14,13,9.70
2017,02,13,14,14,9.80
2017,02,13,14,15,9.80
2017,02,13,14,16,9.80
2017,02,13,14,17,9.90
2017,02,13,14,18,10.00
2017,02,13,14,19,10.00
2017,02,13,14,20,10.10
2017,02,13,14,21,10.10
2017,02,13,14,22,10.20
2017,02,13,14,23,10.20
2017,02,13,14,24,10.30
2017,02,13,14,25,10.30
2017,02,13,14,26,10.30
2017,02,13,14,27,10.30
2017,02,13,14,28,10.40
2017,02,13,14,29,10.40
2017,02,13,14,30,10.50
2017,02,13,14,31,10.50
2017,02,13,14,32,10.60
2017,02,13,14,33,10.60
2017,02,13,14,34,10.70
2017,02,13,14,35,10.70
2017,02,13,14,36,10.70
2017,02,13,14,37,10.70
2017,02,13,14,38,10.70
2017,02,13,14,39,10.70
2017,02,13,14,40,10.60
2017,02,13,14,41,10.60
2017,02,13,14,42,10.70
2017,02,13,14,43,10.70
2017,02,13,14,44,10.70
2017,02,13,14,45,10.70
2017,02,13,14,46,10.70
2017,02,13,14,47,10.80
2017,02,13,14,48,10.90
2017,02,13,14,49,11.00
2017,02,13,14,50,11.00
2017,02,13,14,51,11.10
2017,02,13,14,52,11.10
2017,02,13,14,53,11.20
2017,02,13,14,54,11.30
2017,02,13,14,55,11.30
2017,02,13,14,56,11.40
2017,02,13,14,57,11.50
2017,02,13,14,58,11.50
2017,02,13,14,59,11.60
2017,02,13,15,00,11.60
2017,02,13,15,01,11.60
2017,02,13,15,02,11.60
2017,02,13,15,03,11.60
2017,02,13,15,04,11.60
2017,02,13,15,05,11.60
2017,02,13,15,06,11.60
2017,02,13,15,07,11.60
2017,02,13,15,08,11.50
2017,02,13,15,09,11.50
2017,02,13,15,10,11.50
2017,02,13,15,11,11.50
2017,02,13,15,12,11.60
2017,02,13,15,13,11.60
2017,02,13,15,14,11.60
2017,02,13,15,15,11.60
2017,02,13,15,16,11.60
2017,02,13,15,17,11.70
2017,02,13,15,18,11.70
2017,02,13,15,19,11.70
2017,02,13,15,20,11.70
2017,02,13,15,21,11.80
2017,02,13,15,22,11.80
2017,02,13,15,23,11.80
2017,02,13,15,24,11.90
2017,02,13,15,25,11.90
2017,02,13,15,26,12.00
2017,02,13,15,27,12.10
2017,02,13,15,28,12.20
2017,02,13,15,29,12.30
2017,02,13,15,30,12.30
2017,02,13,15,31,12.40
2017,02,13,15,32,12.30
2017,02,13,15,33,12.20
2017,02,13,15,34,12.00
2017,02,13,15,35,12.00
2017,02,13,15,36,11.90
2017,02,13,15,37,11.80
2017,02,13,15,38,11.80
2017,02,13,15,39,11.80
2017,02,13,15,40,11.90
2017,02,13,15,41,12.00
2017,02,13,15,42,12.10
2017,02,13,15,43,12.20
2017,02,13,15,44,12.30
2017,02,13,15,45,12.30
2017,02,13,15,46,12.50
2017,02,13,15,47,12.50
2017,02,13,15,48,12.60
2017,02,13,15,49,12.70
2017,02,13,15,50,12.70
2017,02,13,15,51,12.80
2017,02,13,15,52,12.80
2017,02,13,15,53,12.80
2017,02,13,15,54,12.80
2017,02,13,15,55,12.80
2017,02,13,15,56,12.80
2017,02,13,15,57,12.80
2017,02,13,15,58,12.90
2017,02,13,15,59,12.90
2017,02,13,16,00,12.90
2017,02,13,16,01,12.90
2017,02,13,16,02,12.90
2017,02,13,16,03,12.90
2017,02,13,16,04,12.90
2017,02,13,16,05,13.00
2017,02,13,16,06,13.00
2017,02,13,16,07,13.00
2017,02,13,16,08,13.00
2017,02,13,16,09,13.00
2017,02,13,16,10,13.00
2017,02,13,16,11,13.00
2017,02,13,16,12,13.10
2017,02,13,16,13,13.10
2017,02,13,16,14,13.00
2017,02,13,16,15,12.80
2017,02,13,16,16,12.70
2017,02,13,16,17,12.60
2017,02,13,16,18,12.50
2017,02,13,16,19,12.50
2017,02,13,16,20,12.40
2017,02,13,16,21,12.30
2017,02,13,16,22,12.30
2017,02,13,16,23,12.20
2017,02,13,16,24,12.20
2017,02,13,16,25,12.10
2017,02,13,16,26,12.10
2017,02,13,16,27,12.10
2017,02,13,16,28,12.00
2017,02,13,16,29,11.90
2017,02,13,16,30,11.90
2017,02,13,16,31,11.80
2017,02,13,16,32,11.80
2017,02,13,16,33,11.80
2017,02,13,16,34,11.80
2017,02,13,16,35,11.80
2017,02,13,16,36,11.80
2017,02,13,16,37,11.80
2017,02,13,16,38,11.80
2017,02,13,16,39,11.70
2017,02,13,16,40,11.70
2017,02,13,16,41,11.70
2017,02,13,16,42,11.60
2017,02,13,16,43,11.60
2017,02,13,16,44,11.60
2017,02,13,16,45,11.50
2017,02,13,16,46,11.50
2017,02,13,16,47,11.40
2017,02,13,16,48,11.40
2017,02,13,16,49,11.40
2017,02,13,16,50,11.40
2017,02,13,16,51,11.40
2017,02,13,16,52,11.30
2017,02,13,16,53,11.30
2017,02,13,16,54,11.20
2017,02,13,16,55,11.00
2017,02,13,16,56,10.80
2017,02,13,16,57,10.50
2017,02,13,16,58,10.30
2017,02,13,16,59,10.10
2017,02,13,17,00,9.80
2017,02,13,17,01,9.70
2017,02,13,17,02,9.50
2017,02,13,17,03,9.40
2017,02,13,17,04,9.30
2017,02,13,17,05,9.20
2017,02,13,17,06,9.20
2017,02,13,17,07,9.10
2017,02,13,17,08,9.10
2017,02,13,17,09,9.00
2017,02,13,17,10,9.00
2017,02,13,17,11,8.90
2017,02,13,17,12,8.80
2017,02,13,17,13,8.60
2017,02,13,17,14,8.50
2017,02,13,17,15,8.40
2017,02,13,17,16,8.30
2017,02,13,17,17,8.20
2017,02,13,17,18,8.10
2017,02,13,17,19,8.00
2017,02,13,17,20,7.90
2017,02,13,17,21,7.80
2017,02,13,17,22,7.70
2017,02,13,17,23,7.60
2017,02,13,17,24,7.50
2017,02,13,17,25,7.40
2017,02,13,17,26,7.20
2017,02,13,17,27,7.10
2017,02,13,17,28,6.80
2017,02,13,17,29,6.60
2017,02,13,17,30,6.40
2017,02,13,17,31,6.30
2017,02,13,17,32,6.20
2017,02,13,17,33,6.00